Volver al catálogo

RADIO ROSTO

ActivoRadioaficionadoUNKNOWN
NORAD 23439·PAYLOAD·🇷🇺 Russia

Lanzado Dec 26, 1994 desde Baikonur Cosmodrome

Loading…

Próximos Pases (próximas 24 horas)

TLE

ActualizadoSource: Space-Track

Época: Sep 14, 2026, 10:13 UTC

1 23439U 94085A   26257.42586329 -.00000047  00000-0 -12683-3 0  9994
2 23439  64.8161 158.8915 0159112 347.8316  11.8785 11.27583975305968

Sigue RADIO ROSTO en tiempo real con AllMySat

Download on the App Store